Hourly Data Report for August 19, 2020

SVARTEVAEG
NUNAVUT
Current Station Operator: ECCC - MSC

81°09'39.000" N
91°48'59.060" W
72.00 m
2403833
71872
NSG

Download Data

Hourly Data (August 2020)
Hourly Data Report for August 19, 2020
TIME Temp Definition
°C
Dew Point Definition
°C
Rel Hum Definition
%
Wind Dir Definition
10's deg

Wind Spd Definition
km/h
Visibility Definition
km
Stn Press Definition
kPa
Hmdx Definition


Wind Chill Definition


Weather Definition


00:00 1.8 -0.5 84 36 15   100.29     LegendNANA
01:00 2.3 -0.8 80 36 15   100.27     LegendNANA
02:00 3.2 -0.7 75 35 7   100.28     LegendNANA
03:00 2.2 -0.4 83 35 9   100.30     LegendNANA
04:00 4.4 0.1 74 35 2   100.29     LegendNANA
05:00 4.5 0.4 75 11 3   100.30     LegendNANA
06:00 6.0 0.6 68 12 3   100.30     LegendNANA
07:00 6.1 1.7 73 16 11   100.28     LegendNANA
08:00 6.3 2.4 76 16 13   100.29     LegendNANA
09:00 5.2 2.3 82 12 7   100.28     LegendNANA
10:00 6.6 1.3 69 17 15   100.26     LegendNANA
11:00 6.2 1.4 71 17 8   100.25     LegendNANA
12:00 7.2 1.9 69 21 8   100.24     LegendNANA
13:00 6.9 2.0 71 18 11   100.22     LegendNANA
14:00 7.3 2.5 72 21 10   100.19     LegendNANA
15:00 6.9 2.4 73 18 13   100.21     LegendNANA
16:00 6.1 3.2 82 18 11   100.25     LegendNANA
17:00 5.7 3.3 85 13 8   100.24     LegendNANA
18:00 5.8 3.8 87 18 8   100.22     LegendNANA
19:00 6.7 3.8 82 21 9   100.21     LegendNANA
20:00 5.7 3.3 84 13 3   100.19     LegendNANA
21:00 5.7 3.5 86 23 5   100.19     LegendNANA
22:00 6.2 3.5 83 0 1   100.19     LegendNANA
23:00 6.5 3.7 82 17 3   100.16     LegendNANA

Notes on Data Quality.

Legend

  • E = Estimated
  • M = Missing
  • NA = Not Available*
  • [empty] = Indicates an unobserved value
Date modified: